contact:dominique.lefevre@mio.osupytheas.fr, maurice.libes@osupytheas.fr, didier.mallarino@osupytheas.fr
Project:EMSO http://www.emso-fr.org/EMSO-France
Depth: 2436.0 m
Title:EMSO Ligure Ouest : Data MII capteur CSTAR
DateTime,Latitude,Longitude,Instrument_Serial,Reference_Counts,Signal_Counts,Corrected_Signal_raw_counts,Calculated_Beam_c_inverse_meters,Internal_thermistor_counts
DateTime,Latitude,Longitude,Instrument_Serial,Reference_Counts,Signal_Counts,Corrected_Signal_raw_counts,Calculated_Beam_c_inverse_meters,Internal_thermistor_counts
2023-05-25T00:00:59,42.805,6.029,CST-1368DR,4288,4635,11475,01.233,552
2023-05-25T00:04:00,42.805,6.029,CST-1368DR,4288,4603,11395,01.260,552
2023-05-25T00:07:02,42.805,6.029,CST-1368DR,4288,4601,11391,01.262,552
2023-05-25T00:10:04,42.805,6.029,CST-1368DR,4288,4604,11398,01.259,552
2023-05-25T00:13:05,42.805,6.029,CST-1368DR,4288,4604,11397,01.260,552
2023-05-25T00:16:07,42.805,6.029,CST-1368DR,4288,4601,11389,01.263,552
2023-05-25T00:19:08,42.805,6.029,CST-1368DR,4288,4609,11410,01.255,552
2023-05-25T00:22:10,42.805,6.029,CST-1368DR,4288,4634,11472,01.234,552
2023-05-25T00:25:12,42.805,6.029,CST-1368DR,4288,4637,11479,01.231,552
2023-05-25T00:28:13,42.805,6.029,CST-1368DR,4288,4639,11485,01.229,552
2023-05-25T00:31:15,42.805,6.029,CST-1368DR,4288,4640,11488,01.228,552
2023-05-25T00:34:16,42.805,6.029,CST-1368DR,4288,4638,11483,01.230,552
2023-05-25T00:37:18,42.805,6.029,CST-1368DR,4288,4640,11486,01.229,552
2023-05-25T00:40:19,42.805,6.029,CST-1368DR,4288,4641,11489,01.228,552
2023-05-25T00:43:21,42.805,6.029,CST-1368DR,4288,4639,11484,01.229,552
2023-05-25T00:46:23,42.805,6.029,CST-1368DR,4288,4638,11483,01.230,552
2023-05-25T00:49:24,42.805,6.029,CST-1368DR,4288,4643,11493,01.226,552
2023-05-25T00:52:26,42.805,6.029,CST-1368DR,4288,4639,11485,01.229,552
2023-05-25T00:55:27,42.805,6.029,CST-1368DR,4288,4641,11490,01.227,552
2023-05-25T00:58:29,42.805,6.029,CST-1368DR,4288,4642,11491,01.227,552
2023-05-25T01:01:30,42.805,6.029,CST-1368DR,4288,4640,11486,01.229,552
2023-05-25T01:04:32,42.805,6.029,CST-1368DR,4288,4639,11485,01.229,552
2023-05-25T01:07:34,42.805,6.029,CST-1368DR,4288,4641,11488,01.228,552
2023-05-25T01:10:35,42.805,6.029,CST-1368DR,4288,4638,11481,01.230,552
2023-05-25T01:13:37,42.805,6.029,CST-1368DR,4288,4636,11476,01.232,552
2023-05-25T01:16:38,42.805,6.029,CST-1368DR,4288,4640,11486,01.229,552
2023-05-25T01:19:40,42.805,6.029,CST-1368DR,4288,4639,11483,01.230,552
2023-05-25T01:22:42,42.805,6.029,CST-1368DR,4288,4638,11481,01.230,552
2023-05-25T01:25:43,42.805,6.029,CST-1368DR,4288,4640,11488,01.228,552
2023-05-25T01:28:45,42.805,6.029,CST-1368DR,4288,4638,11481,01.230,552
2023-05-25T01:31:46,42.805,6.029,CST-1368DR,4288,4636,11477,01.232,552
2023-05-25T01:34:48,42.805,6.029,CST-1368DR,4288,4637,11480,01.231,552
2023-05-25T01:37:49,42.805,6.029,CST-1368DR,4288,4638,11482,01.230,552
2023-05-25T01:40:51,42.805,6.029,CST-1368DR,4288,4640,11488,01.228,552
2023-05-25T01:43:53,42.805,6.029,CST-1368DR,4288,4634,11472,01.234,552
2023-05-25T01:46:54,42.805,6.029,CST-1368DR,4288,4636,11477,01.232,552
2023-05-25T01:49:56,42.805,6.029,CST-1368DR,4288,4639,11483,01.230,552
2023-05-25T01:52:57,42.805,6.029,CST-1368DR,4288,4638,11482,01.230,552
2023-05-25T01:55:59,42.805,6.029,CST-1368DR,4288,4639,11483,01.230,552
2023-05-25T01:59:00,42.805,6.029,CST-1368DR,4288,4641,11490,01.227,552
2023-05-25T02:02:02,42.805,6.029,CST-1368DR,4288,4639,11485,01.229,552
2023-05-25T02:05:04,42.805,6.029,CST-1368DR,4288,4635,11473,01.233,552
2023-05-25T02:08:05,42.805,6.029,CST-1368DR,4288,4618,11431,01.248,552
2023-05-25T02:11:07,42.805,6.029,CST-1368DR,4288,4612,11416,01.253,552
2023-05-25T02:14:08,42.805,6.029,CST-1368DR,4288,4618,11432,01.248,552
2023-05-25T02:17:10,42.805,6.029,CST-1368DR,4288,4619,11434,01.247,552
2023-05-25T02:20:11,42.805,6.029,CST-1368DR,4288,4618,11433,01.247,552
2023-05-25T02:23:13,42.805,6.029,CST-1368DR,4288,4617,11430,01.248,552
2023-05-25T02:26:15,42.805,6.029,CST-1368DR,4288,4625,11450,01.241,552
2023-05-25T02:29:16,42.805,6.029,CST-1368DR,4288,4627,11455,01.239,552
2023-05-25T02:32:18,42.805,6.029,CST-1368DR,4288,4622,11442,01.244,552
2023-05-25T02:35:19,42.805,6.029,CST-1368DR,4288,4624,11447,01.242,552
2023-05-25T02:38:21,42.805,6.029,CST-1368DR,4288,4621,11439,01.245,552
2023-05-25T02:41:23,42.805,6.029,CST-1368DR,4288,4621,11439,01.245,552
2023-05-25T02:44:24,42.805,6.029,CST-1368DR,4288,4625,11450,01.241,552
2023-05-25T02:47:26,42.805,6.029,CST-1368DR,4288,4622,11442,01.244,552
2023-05-25T02:50:27,42.805,6.029,CST-1368DR,4288,4626,11451,01.241,552
2023-05-25T02:53:29,42.805,6.029,CST-1368DR,4288,4622,11443,01.244,552
2023-05-25T02:56:30,42.805,6.029,CST-1368DR,4288,4617,11429,01.249,552
2023-05-25T02:59:32,42.805,6.029,CST-1368DR,4288,4622,11441,01.244,552
2023-05-25T03:02:34,42.805,6.029,CST-1368DR,4288,4619,11434,01.247,552
2023-05-25T03:05:35,42.805,6.029,CST-1368DR,4288,4616,11426,01.250,552
2023-05-25T03:08:37,42.805,6.029,CST-1368DR,4288,4623,11446,01.243,552
2023-05-25T03:11:38,42.805,6.029,CST-1368DR,4288,4625,11449,01.242,552
2023-05-25T03:14:40,42.805,6.029,CST-1368DR,4288,4623,11444,01.243,552
2023-05-25T03:17:41,42.805,6.029,CST-1368DR,4288,4627,11454,01.240,552
2023-05-25T03:20:43,42.805,6.029,CST-1368DR,4288,4622,11442,01.244,552
2023-05-25T03:23:45,42.805,6.029,CST-1368DR,4288,4617,11429,01.249,552
2023-05-25T03:26:46,42.805,6.029,CST-1368DR,4288,4614,11423,01.251,552
2023-05-25T03:29:48,42.805,6.029,CST-1368DR,4288,4610,11413,01.254,552
2023-05-25T03:32:49,42.805,6.029,CST-1368DR,4288,4614,11423,01.251,552
2023-05-25T03:35:51,42.805,6.029,CST-1368DR,4288,4651,11513,01.219,552
2023-05-25T03:38:53,42.805,6.029,CST-1368DR,4288,4658,11530,01.213,552
2023-05-25T03:41:54,42.805,6.029,CST-1368DR,4288,4658,11532,01.213,552
2023-05-25T03:44:56,42.805,6.029,CST-1368DR,4288,4657,11530,01.213,552
2023-05-25T03:47:57,42.805,6.029,CST-1368DR,4288,4657,11528,01.214,552
2023-05-25T03:50:59,42.805,6.029,CST-1368DR,4288,4658,11530,01.213,552
2023-05-25T03:54:00,42.805,6.029,CST-1368DR,4288,4659,11533,01.212,552
2023-05-25T03:57:02,42.805,6.029,CST-1368DR,4288,4659,11535,01.212,552
2023-05-25T04:00:04,42.805,6.029,CST-1368DR,4288,4657,11529,01.214,552
2023-05-25T04:03:05,42.805,6.029,CST-1368DR,4288,4659,11534,01.212,552
2023-05-25T04:06:07,42.805,6.029,CST-1368DR,4288,4657,11529,01.214,552
2023-05-25T04:09:08,42.805,6.029,CST-1368DR,4288,4657,11528,01.214,552
2023-05-25T04:12:10,42.805,6.029,CST-1368DR,4288,4659,11534,01.212,552
2023-05-25T04:15:11,42.805,6.029,CST-1368DR,4288,4661,11540,01.210,552
2023-05-25T04:18:13,42.805,6.029,CST-1368DR,4288,4658,11532,01.213,552
2023-05-25T04:21:15,42.805,6.029,CST-1368DR,4288,4659,11534,01.212,552
2023-05-25T04:24:16,42.805,6.029,CST-1368DR,4288,4660,11536,01.211,552
2023-05-25T04:27:18,42.805,6.029,CST-1368DR,4288,4661,11540,01.210,552
2023-05-25T04:30:19,42.805,6.029,CST-1368DR,4288,4658,11532,01.213,552
2023-05-25T04:33:21,42.805,6.029,CST-1368DR,4288,4659,11533,01.212,552
2023-05-25T04:36:23,42.805,6.029,CST-1368DR,4288,4661,11538,01.211,552
2023-05-25T04:39:24,42.805,6.029,CST-1368DR,4288,4662,11540,01.210,552
2023-05-25T04:42:26,42.805,6.029,CST-1368DR,4288,4661,11539,01.210,552
2023-05-25T04:45:27,42.805,6.029,CST-1368DR,4288,4662,11541,01.210,552
2023-05-25T04:48:29,42.805,6.029,CST-1368DR,4288,4662,11540,01.210,552
2023-05-25T04:51:30,42.805,6.029,CST-1368DR,4288,4653,11519,01.217,552
2023-05-25T04:54:32,42.805,6.029,CST-1368DR,4288,4655,11524,01.215,552
2023-05-25T04:57:34,42.805,6.029,CST-1368DR,4288,4655,11525,01.215,551
2023-05-25T05:00:35,42.805,6.029,CST-1368DR,4288,4654,11522,01.216,552
2023-05-25T05:03:37,42.805,6.029,CST-1368DR,4288,4656,11526,01.215,552
2023-05-25T05:06:38,42.805,6.029,CST-1368DR,4288,4655,11525,01.215,552
2023-05-25T05:09:40,42.805,6.029,CST-1368DR,4288,4656,11527,01.214,552
2023-05-25T05:12:41,42.805,6.029,CST-1368DR,4288,4658,11531,01.213,552
2023-05-25T05:15:43,42.805,6.029,CST-1368DR,4288,4659,11533,01.212,552
2023-05-25T05:18:45,42.805,6.029,CST-1368DR,4288,4663,11543,01.209,552
2023-05-25T05:21:46,42.805,6.029,CST-1368DR,4288,4660,11536,01.211,552
2023-05-25T05:24:48,42.805,6.029,CST-1368DR,4288,4657,11529,01.214,552
2023-05-25T05:27:49,42.805,6.029,CST-1368DR,4288,4656,11527,01.214,552
2023-05-25T05:30:51,42.805,6.029,CST-1368DR,4288,4662,11540,01.210,552
2023-05-25T05:33:53,42.805,6.029,CST-1368DR,4288,4654,11522,01.216,552
2023-05-25T05:36:54,42.805,6.029,CST-1368DR,4288,4656,11525,01.215,552
2023-05-25T05:39:56,42.805,6.029,CST-1368DR,4288,4653,11520,01.217,552
2023-05-25T05:42:57,42.805,6.029,CST-1368DR,4288,4656,11527,01.214,552
2023-05-25T05:45:59,42.805,6.029,CST-1368DR,4288,4656,11526,01.215,552
2023-05-25T05:49:00,42.805,6.029,CST-1368DR,4288,4654,11522,01.216,552
2023-05-25T05:52:02,42.805,6.029,CST-1368DR,4288,4663,11543,01.209,552
2023-05-25T05:55:04,42.805,6.029,CST-1368DR,4288,4660,11535,01.212,552
2023-05-25T05:58:05,42.805,6.029,CST-1368DR,4288,4659,11534,01.212,552
2023-05-25T06:01:07,42.805,6.029,CST-1368DR,4288,4663,11545,01.208,552
2023-05-25T06:04:08,42.805,6.029,CST-1368DR,4288,4664,11546,01.208,552
2023-05-25T06:07:10,42.805,6.029,CST-1368DR,4288,4663,11545,01.208,552
2023-05-25T06:10:11,42.805,6.029,CST-1368DR,4288,4660,11535,01.212,552
2023-05-25T06:13:13,42.805,6.029,CST-1368DR,4288,4661,11540,01.210,551
2023-05-25T06:16:15,42.805,6.029,CST-1368DR,4288,4661,11538,01.211,552
2023-05-25T06:19:16,42.805,6.029,CST-1368DR,4288,4664,11546,01.208,552
2023-05-25T06:22:18,42.805,6.029,CST-1368DR,4288,4653,11520,01.217,552
2023-05-25T06:25:19,42.805,6.029,CST-1368DR,4288,4660,11536,01.211,552
2023-05-25T06:28:21,42.805,6.029,CST-1368DR,4288,4648,11507,01.221,552
2023-05-25T06:31:26,42.805,6.029,CST-1368DR,4288,4659,11535,01.212,552
2023-05-25T06:34:27,42.805,6.029,CST-1368DR,4288,4662,11541,01.210,552
2023-05-25T06:37:29,42.805,6.029,CST-1368DR,4288,4661,11538,01.211,552
2023-05-25T06:40:30,42.805,6.029,CST-1368DR,4288,4662,11541,01.210,552
2023-05-25T06:43:32,42.805,6.029,CST-1368DR,4288,4662,11541,01.210,552
2023-05-25T06:46:33,42.805,6.029,CST-1368DR,4288,4660,11536,01.211,552
2023-05-25T06:49:35,42.805,6.029,CST-1368DR,4288,4665,11549,01.207,552
2023-05-25T06:52:37,42.805,6.029,CST-1368DR,4288,4660,11536,01.211,552
2023-05-25T06:55:38,42.805,6.029,CST-1368DR,4288,4660,11536,01.211,551
2023-05-25T06:58:40,42.805,6.029,CST-1368DR,4288,4660,11536,01.211,552
2023-05-25T07:01:41,42.805,6.029,CST-1368DR,4288,4661,11539,01.210,552
2023-05-25T07:04:43,42.805,6.029,CST-1368DR,4288,4655,11524,01.215,552
2023-05-25T07:07:44,42.805,6.029,CST-1368DR,4288,4651,11514,01.219,552
2023-05-25T07:10:46,42.805,6.029,CST-1368DR,4288,4651,11514,01.219,552
2023-05-25T07:13:48,42.805,6.029,CST-1368DR,4288,4650,11511,01.220,552
2023-05-25T07:16:49,42.805,6.029,CST-1368DR,4288,4649,11509,01.221,552
2023-05-25T07:19:51,42.805,6.029,CST-1368DR,4288,4648,11506,01.222,552
2023-05-25T07:22:52,42.805,6.029,CST-1368DR,4288,4653,11519,01.217,552
2023-05-25T07:25:54,42.805,6.029,CST-1368DR,4288,4648,11507,01.221,552
2023-05-25T07:28:56,42.805,6.029,CST-1368DR,4288,4646,11502,01.223,552
2023-05-25T07:31:57,42.805,6.029,CST-1368DR,4288,4647,11504,01.222,552
2023-05-25T07:34:59,42.805,6.029,CST-1368DR,4288,4646,11502,01.223,552
2023-05-25T07:38:00,42.805,6.029,CST-1368DR,4288,4645,11500,01.224,552
2023-05-25T07:41:02,42.805,6.029,CST-1368DR,4288,4648,11507,01.221,552
2023-05-25T07:44:03,42.805,6.029,CST-1368DR,4287,4616,11429,01.249,552
2023-05-25T07:47:05,42.805,6.029,CST-1368DR,4287,4621,11441,01.244,552
2023-05-25T07:50:07,42.805,6.029,CST-1368DR,4288,4647,11505,01.222,552
2023-05-25T07:53:08,42.805,6.029,CST-1368DR,4288,4643,11494,01.226,552
2023-05-25T07:56:10,42.805,6.029,CST-1368DR,4288,4643,11493,01.226,552
2023-05-25T07:59:11,42.805,6.029,CST-1368DR,4288,4642,11491,01.227,552
2023-05-25T08:02:13,42.805,6.029,CST-1368DR,4288,4641,11489,01.228,552
2023-05-25T08:05:14,42.805,6.029,CST-1368DR,4288,4639,11484,01.229,552
2023-05-25T08:08:16,42.805,6.029,CST-1368DR,4288,4640,11486,01.229,552
2023-05-25T08:11:18,42.805,6.029,CST-1368DR,4288,4638,11481,01.230,552
2023-05-25T08:14:19,42.805,6.029,CST-1368DR,4288,4639,11485,01.229,552
2023-05-25T08:17:21,42.805,6.029,CST-1368DR,4287,4639,11488,01.228,552
2023-05-25T08:20:22,42.805,6.029,CST-1368DR,4287,4634,11475,01.233,552
2023-05-25T08:23:24,42.805,6.029,CST-1368DR,4287,4634,11474,01.233,552
2023-05-25T08:26:26,42.805,6.029,CST-1368DR,4288,4632,11468,01.235,552
2023-05-25T08:29:27,42.805,6.029,CST-1368DR,4287,4637,11483,01.230,552
2023-05-25T08:32:29,42.805,6.029,CST-1368DR,4287,4635,11476,01.232,552
2023-05-25T08:35:30,42.805,6.029,CST-1368DR,4287,4636,11478,01.231,552
2023-05-25T08:38:32,42.805,6.029,CST-1368DR,4287,4634,11475,01.233,552
2023-05-25T08:41:33,42.805,6.029,CST-1368DR,4287,4633,11472,01.234,552
2023-05-25T08:44:35,42.805,6.029,CST-1368DR,4288,4634,11471,01.234,552
2023-05-25T08:47:37,42.805,6.029,CST-1368DR,4287,4633,11472,01.234,552
2023-05-25T08:50:38,42.805,6.029,CST-1368DR,4287,4631,11467,01.235,552
2023-05-25T08:53:40,42.805,6.029,CST-1368DR,4287,4628,11459,01.238,552
2023-05-25T08:56:41,42.805,6.029,CST-1368DR,4287,4632,11469,01.235,552
2023-05-25T08:59:43,42.805,6.029,CST-1368DR,4287,4620,11440,01.245,552
2023-05-25T09:02:44,42.805,6.029,CST-1368DR,4287,4606,11405,01.257,552
2023-05-25T09:05:46,42.805,6.029,CST-1368DR,4287,4588,11361,01.272,552
2023-05-25T09:08:48,42.805,6.029,CST-1368DR,4287,4629,11462,01.237,552
2023-05-25T09:11:49,42.805,6.029,CST-1368DR,4287,4623,11446,01.243,552
2023-05-25T09:14:51,42.805,6.029,CST-1368DR,4287,4628,11460,01.238,552
2023-05-25T09:17:52,42.805,6.029,CST-1368DR,4287,4609,11412,01.255,552
2023-05-25T09:20:54,42.805,6.029,CST-1368DR,4287,4626,11454,01.240,552
2023-05-25T09:23:55,42.805,6.029,CST-1368DR,4287,4612,11420,01.252,552
2023-05-25T09:26:57,42.805,6.029,CST-1368DR,4287,4598,11386,01.264,552
2023-05-25T09:29:59,42.805,6.029,CST-1368DR,4287,4597,11382,01.265,552
2023-05-25T09:33:00,42.805,6.029,CST-1368DR,4287,4610,11416,01.253,552
2023-05-25T09:36:02,42.805,6.029,CST-1368DR,4287,4605,11402,01.258,552
2023-05-25T09:39:03,42.805,6.029,CST-1368DR,4287,4596,11380,01.266,552
2023-05-25T09:42:05,42.805,6.029,CST-1368DR,4287,4599,11387,01.263,552
2023-05-25T09:45:07,42.805,6.029,CST-1368DR,4287,4624,11449,01.242,552
2023-05-25T09:48:08,42.805,6.029,CST-1368DR,4287,4600,11391,01.262,552
2023-05-25T09:51:10,42.805,6.029,CST-1368DR,4287,4611,11418,01.252,552
2023-05-25T09:54:11,42.805,6.029,CST-1368DR,4287,4604,11400,01.259,552
2023-05-25T09:57:13,42.805,6.029,CST-1368DR,4287,4622,11445,01.243,552
2023-05-25T10:00:14,42.805,6.029,CST-1368DR,4287,4648,11510,01.220,552
2023-05-25T10:03:16,42.805,6.029,CST-1368DR,4287,4646,11504,01.222,552
2023-05-25T10:06:18,42.805,6.029,CST-1368DR,4287,4645,11502,01.223,552
2023-05-25T10:09:19,42.805,6.029,CST-1368DR,4287,4645,11503,01.223,552
2023-05-25T10:12:21,42.805,6.029,CST-1368DR,4287,4647,11507,01.221,552
2023-05-25T10:15:22,42.805,6.029,CST-1368DR,4287,4648,11510,01.220,552
2023-05-25T10:18:24,42.805,6.029,CST-1368DR,4288,4648,11507,01.221,552
2023-05-25T10:21:25,42.805,6.029,CST-1368DR,4287,4649,11511,01.220,552
2023-05-25T10:24:27,42.805,6.029,CST-1368DR,4287,4646,11504,01.222,552
2023-05-25T10:27:29,42.805,6.029,CST-1368DR,4287,4645,11501,01.223,552
2023-05-25T10:30:31,42.805,6.029,CST-1368DR,4287,4645,11502,01.223,552
2023-05-25T10:33:33,42.805,6.029,CST-1368DR,4287,4645,11501,01.223,552
2023-05-25T10:36:34,42.805,6.029,CST-1368DR,4287,4644,11498,01.224,552
2023-05-25T10:39:36,42.805,6.029,CST-1368DR,4287,4641,11492,01.227,552
2023-05-25T10:42:37,42.805,6.029,CST-1368DR,4287,4645,11501,01.223,552
2023-05-25T10:45:39,42.805,6.029,CST-1368DR,4287,4643,11496,01.225,552
2023-05-25T10:48:40,42.805,6.029,CST-1368DR,4287,4651,11517,01.218,552
2023-05-25T10:51:42,42.805,6.029,CST-1368DR,4287,4646,11504,01.222,552
2023-05-25T10:54:44,42.805,6.029,CST-1368DR,4287,4641,11493,01.226,552
2023-05-25T10:57:45,42.805,6.029,CST-1368DR,4287,4643,11497,01.225,552
2023-05-25T11:00:47,42.805,6.029,CST-1368DR,4287,4644,11498,01.224,552
2023-05-25T11:03:48,42.805,6.029,CST-1368DR,4287,4642,11495,01.226,552
2023-05-25T11:06:50,42.805,6.029,CST-1368DR,4287,4645,11501,01.223,552
2023-05-25T11:09:51,42.805,6.029,CST-1368DR,4287,4643,11497,01.225,552
2023-05-25T11:12:53,42.805,6.029,CST-1368DR,4287,4644,11500,01.224,552
2023-05-25T11:15:55,42.805,6.029,CST-1368DR,4287,4644,11499,01.224,552
2023-05-25T11:18:56,42.805,6.029,CST-1368DR,4287,4645,11501,01.223,552
2023-05-25T11:21:58,42.805,6.029,CST-1368DR,4287,4644,11500,01.224,552
2023-05-25T11:24:59,42.805,6.029,CST-1368DR,4287,4642,11495,01.226,552
2023-05-25T11:28:01,42.805,6.029,CST-1368DR,4287,4643,11496,01.225,552
2023-05-25T11:31:02,42.805,6.029,CST-1368DR,4287,4642,11493,01.226,552
2023-05-25T11:34:04,42.805,6.029,CST-1368DR,4287,4642,11493,01.226,552
2023-05-25T11:37:06,42.805,6.029,CST-1368DR,4287,4642,11495,01.226,552
2023-05-25T11:40:07,42.805,6.029,CST-1368DR,4287,4641,11491,01.227,552
2023-05-25T11:43:09,42.805,6.029,CST-1368DR,4287,4646,11504,01.222,552
2023-05-25T11:46:10,42.805,6.029,CST-1368DR,4287,4644,11500,01.224,552
2023-05-25T11:49:12,42.805,6.029,CST-1368DR,4287,4642,11495,01.226,552
2023-05-25T11:52:14,42.805,6.029,CST-1368DR,4287,4642,11493,01.226,552
2023-05-25T11:55:15,42.805,6.029,CST-1368DR,4287,4642,11495,01.226,552
2023-05-25T11:58:17,42.805,6.029,CST-1368DR,4287,4640,11489,01.228,552
2023-05-25T12:01:18,42.805,6.029,CST-1368DR,4287,4641,11491,01.227,552
2023-05-25T12:04:20,42.805,6.029,CST-1368DR,4287,4641,11493,01.226,552
2023-05-25T12:07:21,42.805,6.029,CST-1368DR,4287,4641,11492,01.227,552
2023-05-25T12:10:23,42.805,6.029,CST-1368DR,4287,4640,11490,01.227,552
2023-05-25T12:13:25,42.805,6.029,CST-1368DR,4287,4641,11493,01.226,552
2023-05-25T12:16:26,42.805,6.029,CST-1368DR,4287,4641,11491,01.227,552
2023-05-25T12:19:28,42.805,6.029,CST-1368DR,4287,4643,11496,01.225,552
2023-05-25T12:22:29,42.805,6.029,CST-1368DR,4287,4642,11495,01.226,552
2023-05-25T12:25:31,42.805,6.029,CST-1368DR,4287,4642,11495,01.226,552
2023-05-25T12:28:32,42.805,6.029,CST-1368DR,4287,4641,11492,01.227,552
2023-05-25T12:31:34,42.805,6.029,CST-1368DR,4287,4644,11499,01.224,552
2023-05-25T12:34:36,42.805,6.029,CST-1368DR,4287,4640,11490,01.227,552
2023-05-25T12:37:37,42.805,6.029,CST-1368DR,4287,4641,11491,01.227,552
2023-05-25T12:40:39,42.805,6.029,CST-1368DR,4287,4638,11484,01.229,552
2023-05-25T12:43:40,42.805,6.029,CST-1368DR,4287,4641,11491,01.227,552
2023-05-25T12:46:42,42.805,6.029,CST-1368DR,4287,4647,11507,01.221,551
2023-05-25T12:49:44,42.805,6.029,CST-1368DR,4287,4643,11496,01.225,552
2023-05-25T12:52:45,42.805,6.029,CST-1368DR,4287,4647,11507,01.221,552
2023-05-25T12:55:47,42.805,6.029,CST-1368DR,4287,4640,11490,01.227,552
2023-05-25T12:58:48,42.805,6.029,CST-1368DR,4287,4642,11495,01.226,552
2023-05-25T13:01:50,42.805,6.029,CST-1368DR,4287,4642,11495,01.226,552
2023-05-25T13:04:51,42.805,6.029,CST-1368DR,4287,4640,11490,01.227,552
2023-05-25T13:07:53,42.805,6.029,CST-1368DR,4287,4640,11489,01.228,552
2023-05-25T13:10:55,42.805,6.029,CST-1368DR,4287,4641,11493,01.226,552
2023-05-25T13:13:56,42.805,6.029,CST-1368DR,4287,4641,11491,01.227,552
2023-05-25T13:16:58,42.805,6.029,CST-1368DR,4287,4645,11503,01.223,552
2023-05-25T13:19:59,42.805,6.029,CST-1368DR,4287,4643,11497,01.225,552
2023-05-25T13:23:01,42.805,6.029,CST-1368DR,4287,4642,11493,01.226,552
2023-05-25T13:26:02,42.805,6.029,CST-1368DR,4287,4642,11495,01.226,552
2023-05-25T13:29:04,42.805,6.029,CST-1368DR,4287,4641,11492,01.227,552
2023-05-25T13:32:06,42.805,6.029,CST-1368DR,4287,4641,11493,01.226,552
2023-05-25T13:35:07,42.805,6.029,CST-1368DR,4287,4639,11486,01.229,552
2023-05-25T13:38:09,42.805,6.029,CST-1368DR,4287,4639,11488,01.228,552
2023-05-25T13:41:10,42.805,6.029,CST-1368DR,4287,4639,11486,01.229,552
2023-05-25T13:44:12,42.805,6.029,CST-1368DR,4287,4641,11493,01.226,552
2023-05-25T13:47:14,42.805,6.029,CST-1368DR,4287,4641,11493,01.226,552
2023-05-25T13:50:15,42.805,6.029,CST-1368DR,4287,4639,11487,01.228,552
2023-05-25T13:53:17,42.805,6.029,CST-1368DR,4287,4641,11491,01.227,552
2023-05-25T13:56:18,42.805,6.029,CST-1368DR,4287,4642,11493,01.226,552
2023-05-25T13:59:20,42.805,6.029,CST-1368DR,4287,4642,11494,01.226,552
2023-05-25T14:02:21,42.805,6.029,CST-1368DR,4287,4642,11493,01.226,552
2023-05-25T14:05:23,42.805,6.029,CST-1368DR,4287,4641,11493,01.226,552
2023-05-25T14:08:25,42.805,6.029,CST-1368DR,4287,4642,11495,01.226,552
2023-05-25T14:11:26,42.805,6.029,CST-1368DR,4287,4645,11501,01.223,552
2023-05-25T14:14:28,42.805,6.029,CST-1368DR,4287,4644,11500,01.224,552
2023-05-25T14:17:29,42.805,6.029,CST-1368DR,4287,4643,11496,01.225,552
2023-05-25T14:20:31,42.805,6.029,CST-1368DR,4287,4643,11497,01.225,552
2023-05-25T14:23:32,42.805,6.029,CST-1368DR,4287,4644,11499,01.224,552
2023-05-25T14:26:34,42.805,6.029,CST-1368DR,4287,4643,11497,01.225,552
2023-05-25T14:29:36,42.805,6.029,CST-1368DR,4287,4640,11488,01.228,552
2023-05-25T14:32:38,42.805,6.029,CST-1368DR,4287,4644,11499,01.224,552
2023-05-25T14:35:39,42.805,6.029,CST-1368DR,4287,4640,11488,01.228,552
2023-05-25T14:38:41,42.805,6.029,CST-1368DR,4287,4642,11495,01.226,552
2023-05-25T14:41:42,42.805,6.029,CST-1368DR,4287,4645,11501,01.223,552
2023-05-25T14:44:44,42.805,6.029,CST-1368DR,4287,4641,11493,01.226,552
2023-05-25T14:47:46,42.805,6.029,CST-1368DR,4287,4644,11498,01.224,552
2023-05-25T14:50:47,42.805,6.029,CST-1368DR,4287,4643,11496,01.225,552
2023-05-25T14:53:49,42.805,6.029,CST-1368DR,4287,4642,11495,01.226,552
2023-05-25T14:56:50,42.805,6.029,CST-1368DR,4287,4643,11496,01.225,552
2023-05-25T14:59:52,42.805,6.029,CST-1368DR,4287,4643,11496,01.225,552
2023-05-25T15:02:53,42.805,6.029,CST-1368DR,4287,4642,11495,01.226,552
2023-05-25T15:05:55,42.805,6.029,CST-1368DR,4287,4643,11496,01.225,552
2023-05-25T15:08:57,42.805,6.029,CST-1368DR,4287,4642,11495,01.226,552
2023-05-25T15:11:58,42.805,6.029,CST-1368DR,4287,4643,11496,01.225,552
2023-05-25T15:15:00,42.805,6.029,CST-1368DR,4287,4641,11492,01.227,552
2023-05-25T15:18:01,42.805,6.029,CST-1368DR,4287,4641,11493,01.226,552
2023-05-25T15:21:03,42.805,6.029,CST-1368DR,4287,4641,11491,01.227,552
2023-05-25T15:24:04,42.805,6.029,CST-1368DR,4287,4641,11492,01.227,552
2023-05-25T15:27:06,42.805,6.029,CST-1368DR,4287,4642,11494,01.226,552
2023-05-25T15:30:08,42.805,6.029,CST-1368DR,4287,4644,11499,01.224,552
2023-05-25T15:33:09,42.805,6.029,CST-1368DR,4287,4643,11496,01.225,552
2023-05-25T15:36:11,42.805,6.029,CST-1368DR,4287,4644,11500,01.224,552
2023-05-25T15:39:12,42.805,6.029,CST-1368DR,4287,4644,11500,01.224,552
2023-05-25T15:42:14,42.805,6.029,CST-1368DR,4287,4644,11499,01.224,552
2023-05-25T15:45:16,42.805,6.029,CST-1368DR,4287,4643,11497,01.225,552
2023-05-25T15:48:17,42.805,6.029,CST-1368DR,4287,4644,11499,01.224,552
2023-05-25T15:51:19,42.805,6.029,CST-1368DR,4287,4643,11497,01.225,552
2023-05-25T15:54:20,42.805,6.029,CST-1368DR,4287,4645,11501,01.223,552
2023-05-25T15:57:22,42.805,6.029,CST-1368DR,4287,4644,11498,01.224,552
2023-05-25T16:00:23,42.805,6.029,CST-1368DR,4287,4644,11499,01.224,552
2023-05-25T16:03:25,42.805,6.029,CST-1368DR,4287,4645,11501,01.223,552
2023-05-25T16:06:27,42.805,6.029,CST-1368DR,4287,4645,11502,01.223,552
2023-05-25T16:09:28,42.805,6.029,CST-1368DR,4287,4646,11503,01.223,552
2023-05-25T16:12:30,42.805,6.029,CST-1368DR,4287,4645,11501,01.223,552
2023-05-25T16:15:31,42.805,6.029,CST-1368DR,4287,4644,11499,01.224,552
2023-05-25T16:18:33,42.805,6.029,CST-1368DR,4287,4645,11503,01.223,552
2023-05-25T16:21:34,42.805,6.029,CST-1368DR,4287,4645,11501,01.223,552
2023-05-25T16:24:36,42.805,6.029,CST-1368DR,4287,4645,11501,01.223,552
2023-05-25T16:27:38,42.805,6.029,CST-1368DR,4287,4645,11501,01.223,552
2023-05-25T16:30:40,42.805,6.029,CST-1368DR,4287,4644,11499,01.224,552
2023-05-25T16:33:42,42.805,6.029,CST-1368DR,4287,4645,11502,01.223,552
2023-05-25T16:36:43,42.805,6.029,CST-1368DR,4287,4645,11501,01.223,552